Location: Foligno
(42.9600°N, 12.7050°E)
Time: 08:34:04
(UTC+01:00)

ISS - Pass Details

Date: 14 November 2018
Orbit: 401 x 408 km, 51.6° (Epoch: 20 November)

Event Time Altitude Azimuth Distance (km) Brightness Sun altitude
Exits shadow 04:12:18 12° 96° (E) 1,327 -0.4 -30.7°
Drops below altitude 10° 04:12:39 10° 98° (E) 1,459 -0.2 -30.6°
Sets 04:14:48 0° 106° (ESE) 2,317 1.1 -30.2°
